Time,TemperatureF,DewpointF,PressureIn,WindDirection,WindDirectionDegrees,WindSpeedMPH,WindSpeedGustMPH,Humidity,HourlyPrecipIn,Conditions,Clouds,dailyrainin,SoftwareType,DateUTC
2013-02-10 00:04:00,37.3,28.4,30.07,West,265,3.0,4.0,70,0.00,,,0.00,VWS V14.01,2013-02-10 07:04:00,
2013-02-10 00:09:00,37.4,28.5,30.07,West,265,1.0,4.0,70,0.00,,,0.00,VWS V14.01,2013-02-10 07:09:00,
2013-02-10 00:14:00,37.4,28.2,30.08,West,264,0.0,1.0,69,0.00,,,0.00,VWS V14.01,2013-02-10 07:14:00,
2013-02-10 00:19:00,37.5,28.6,30.08,West,265,0.0,2.0,70,0.00,,,0.00,VWS V14.01,2013-02-10 07:19:00,
2013-02-10 00:24:00,37.4,28.5,30.08,West,265,2.0,4.0,70,0.00,,,0.00,VWS V14.01,2013-02-10 07:24:00,
2013-02-10 00:29:00,37.4,28.2,30.08,West,264,1.0,3.0,69,0.00,,,0.00,VWS V14.01,2013-02-10 07:29:00,
2013-02-10 00:34:00,37.4,28.2,30.07,West,264,1.0,3.0,69,0.00,,,0.00,VWS V14.01,2013-02-10 07:34:00,
2013-02-10 00:39:00,37.5,28.6,30.08,West,264,0.0,1.0,70,0.00,,,0.00,VWS V14.01,2013-02-10 07:39:00,
2013-02-10 00:44:00,37.4,28.2,30.08,West,265,0.0,1.0,69,0.00,,,0.00,VWS V14.01,2013-02-10 07:44:00,
2013-02-10 00:49:00,37.4,28.2,30.08,West,265,0.0,1.0,69,0.00,,,0.00,VWS V14.01,2013-02-10 07:49:00,
2013-02-10 00:54:00,37.3,28.4,30.07,West,265,0.0,0.0,70,0.00,,,0.00,VWS V14.01,2013-02-10 07:54:00,
2013-02-10 00:59:00,37.2,28.3,30.08,West,265,0.0,0.0,70,0.00,,,0.00,VWS V14.01,2013-02-10 07:59:00,
2013-02-10 01:04:00,37.0,28.1,30.08,West,264,0.0,1.0,70,0.00,,,0.00,VWS V14.01,2013-02-10 08:04:00,
2013-02-10 01:09:00,36.9,28.4,30.07,West,265,0.0,1.0,71,0.00,,,0.00,VWS V14.01,2013-02-10 08:09:00,
2013-02-10 01:14:00,36.8,28.3,30.08,West,265,0.0,1.0,71,0.00,,,0.00,VWS V14.01,2013-02-10 08:14:00,
2013-02-10 01:19:00,36.8,28.3,30.08,West,264,0.0,1.0,71,0.00,,,0.00,VWS V14.01,2013-02-10 08:19:00,
2013-02-10 01:24:00,36.7,28.2,30.08,West,265,0.0,1.0,71,0.00,,,0.00,VWS V14.01,2013-02-10 08:24:00,
2013-02-10 01:29:00,36.6,27.8,30.07,West,265,0.0,1.0,70,0.00,,,0.00,VWS V14.01,2013-02-10 08:29:00,
2013-02-10 01:34:00,36.5,28.0,30.07,West,264,0.0,1.0,71,0.00,,,0.00,VWS V14.01,2013-02-10 08:34:00,
2013-02-10 01:39:00,36.4,28.2,30.08,West,265,0.0,0.0,72,0.00,,,0.00,VWS V14.01,2013-02-10 08:39:00,
2013-02-10 01:44:00,36.2,28.1,30.07,West,265,2.0,2.0,72,0.00,,,0.00,VWS V14.01,2013-02-10 08:44:00,
2013-02-10 01:49:00,35.9,27.8,30.07,West,265,1.0,3.0,72,0.00,,,0.00,VWS V14.01,2013-02-10 08:49:00,
2013-02-10 01:54:00,35.5,27.7,30.08,West,265,1.0,3.0,73,0.00,,,0.00,VWS V14.01,2013-02-10 08:54:00,
2013-02-10 01:59:00,35.1,27.3,30.07,West,264,1.0,2.0,73,0.00,,,0.00,VWS V14.01,2013-02-10 08:59:00,
2013-02-10 02:04:00,34.8,27.0,30.07,West,265,0.0,2.0,73,0.00,,,0.00,VWS V14.01,2013-02-10 09:04:00,
2013-02-10 02:09:00,34.7,27.0,30.07,West,265,0.0,1.0,73,0.00,,,0.00,VWS V14.01,2013-02-10 09:09:00,
2013-02-10 02:14:00,34.6,27.2,30.07,West,264,0.0,2.0,74,0.00,,,0.00,VWS V14.01,2013-02-10 09:14:00,
2013-02-10 02:19:00,34.4,27.0,30.07,West,264,0.0,2.0,74,0.00,,,0.00,VWS V14.01,2013-02-10 09:19:00,
2013-02-10 02:24:00,34.3,26.9,30.07,West,264,0.0,0.0,74,0.00,,,0.00,VWS V14.01,2013-02-10 09:24:00,
2013-02-10 02:29:00,34.1,27.0,30.07,West,264,2.0,2.0,75,0.00,,,0.00,VWS V14.01,2013-02-10 09:29:00,
2013-02-10 02:34:00,33.7,26.6,30.07,West,264,1.0,3.0,75,0.00,,,0.00,VWS V14.01,2013-02-10 09:34:00,
2013-02-10 02:39:00,33.4,26.7,30.07,West,265,3.0,3.0,76,0.00,,,0.00,VWS V14.01,2013-02-10 09:39:00,
2013-02-10 02:44:00,33.0,26.6,30.07,North,360,3.0,5.0,77,0.00,,,0.00,VWS V14.01,2013-02-10 09:44:00,
2013-02-10 02:49:00,32.7,26.3,30.07,North,355,2.0,4.0,77,0.00,,,0.00,VWS V14.01,2013-02-10 09:49:00,
2013-02-10 02:54:00,32.8,26.1,30.07,North,350,2.0,5.0,76,0.00,,,0.00,VWS V14.01,2013-02-10 09:54:00,
2013-02-10 02:59:00,32.9,26.2,30.07,North,350,0.0,3.0,76,0.00,,,0.00,VWS V14.01,2013-02-10 09:59:00,
2013-02-10 03:04:00,32.8,26.1,30.07,North,350,1.0,3.0,76,0.00,,,0.00,VWS V14.01,2013-02-10 10:04:00,
2013-02-10 03:09:00,32.7,26.0,30.07,North,350,0.0,2.0,76,0.00,,,0.00,VWS V14.01,2013-02-10 10:09:00,
2013-02-10 03:14:00,32.6,26.2,30.07,North,350,0.0,1.0,77,0.00,,,0.00,VWS V14.01,2013-02-10 10:14:00,
2013-02-10 03:19:00,32.5,26.1,30.07,North,350,0.0,2.0,77,0.00,,,0.00,VWS V14.01,2013-02-10 10:19:00,
2013-02-10 03:24:00,32.3,25.9,30.07,North,350,0.0,3.0,77,0.00,,,0.00,VWS V14.01,2013-02-10 10:24:00,
2013-02-10 03:29:00,32.2,25.8,30.07,North,350,0.0,1.0,77,0.00,,,0.00,VWS V14.01,2013-02-10 10:29:00,
2013-02-10 03:34:00,32.1,25.7,30.07,North,350,0.0,1.0,77,0.00,,,0.00,VWS V14.01,2013-02-10 10:34:00,
2013-02-10 03:39:00,32.1,25.7,30.07,North,350,0.0,3.0,77,0.00,,,0.00,VWS V14.01,2013-02-10 10:39:00,
2013-02-10 03:44:00,32.0,25.6,30.07,North,350,0.0,1.0,77,0.00,,,0.00,VWS V14.01,2013-02-10 10:44:00,
2013-02-10 03:49:00,31.9,25.5,30.07,North,350,0.0,1.0,77,0.00,,,0.00,VWS V14.01,2013-02-10 10:49:00,
2013-02-10 03:54:00,31.9,25.5,30.07,North,350,0.0,2.0,77,0.00,,,0.00,VWS V14.01,2013-02-10 10:54:00,
2013-02-10 03:59:00,31.8,25.4,30.07,North,350,0.0,2.0,77,0.00,,,0.00,VWS V14.01,2013-02-10 10:59:00,
2013-02-10 04:04:00,31.9,25.5,30.07,North,350,1.0,3.0,77,0.00,,,0.00,VWS V14.01,2013-02-10 11:04:00,
2013-02-10 04:09:00,32.0,25.3,30.06,North,350,1.0,3.0,76,0.00,,,0.00,VWS V14.01,2013-02-10 11:09:00,
2013-02-10 04:14:00,32.4,25.7,30.07,North,350,2.0,4.0,76,0.00,,,0.00,VWS V14.01,2013-02-10 11:14:00,
2013-02-10 04:19:00,32.7,25.7,30.07,North,350,1.0,4.0,75,0.00,,,0.00,VWS V14.01,2013-02-10 11:19:00,
2013-02-10 04:24:00,33.0,25.6,30.07,North,350,1.0,3.0,74,0.00,,,0.00,VWS V14.01,2013-02-10 11:24:00,
2013-02-10 04:29:00,33.1,25.4,30.06,North,350,2.0,3.0,73,0.00,,,0.00,VWS V14.01,2013-02-10 11:29:00,
2013-02-10 04:34:00,33.1,25.4,30.06,North,350,1.0,3.0,73,0.00,,,0.00,VWS V14.01,2013-02-10 11:34:00,
2013-02-10 04:39:00,33.1,25.1,30.06,North,350,0.0,1.0,72,0.00,,,0.00,VWS V14.01,2013-02-10 11:39:00,
2013-02-10 04:44:00,33.1,25.4,30.06,North,350,0.0,2.0,73,0.00,,,0.00,VWS V14.01,2013-02-10 11:44:00,
2013-02-10 04:49:00,33.1,25.4,30.06,North,350,1.0,3.0,73,0.00,,,0.00,VWS V14.01,2013-02-10 11:49:00,
2013-02-10 04:54:00,33.2,25.2,30.06,North,350,0.0,2.0,72,0.00,,,0.00,VWS V14.01,2013-02-10 11:54:00,
2013-02-10 04:59:00,33.1,25.1,30.06,North,350,0.0,0.0,72,0.00,,,0.00,VWS V14.01,2013-02-10 11:59:00,
2013-02-10 05:04:00,33.0,25.0,30.06,North,350,0.0,1.0,72,0.00,,,0.00,VWS V14.01,2013-02-10 12:04:00,
2013-02-10 05:09:00,32.8,25.1,30.07,North,350,0.0,1.0,73,0.00,,,0.00,VWS V14.01,2013-02-10 12:09:00,
2013-02-10 05:14:00,32.6,25.2,30.06,North,350,0.0,1.0,74,0.00,,,0.00,VWS V14.01,2013-02-10 12:14:00,
2013-02-10 05:19:00,32.3,25.0,30.06,North,350,0.0,2.0,74,0.00,,,0.00,VWS V14.01,2013-02-10 12:19:00,
2013-02-10 05:24:00,32.0,25.0,30.06,North,350,0.0,2.0,75,0.00,,,0.00,VWS V14.01,2013-02-10 12:24:00,
2013-02-10 05:29:00,31.6,24.9,30.06,North,350,2.0,3.0,76,0.00,,,0.00,VWS V14.01,2013-02-10 12:29:00,
2013-02-10 05:34:00,31.4,24.7,30.06,North,350,1.0,3.0,76,0.00,,,0.00,VWS V14.01,2013-02-10 12:34:00,
2013-02-10 05:39:00,31.2,24.5,30.05,North,350,0.0,2.0,76,0.00,,,0.00,VWS V14.01,2013-02-10 12:39:00,
2013-02-10 05:44:00,31.1,24.8,30.06,North,350,0.0,0.0,77,0.00,,,0.00,VWS V14.01,2013-02-10 12:44:00,
2013-02-10 05:50:00,31.0,24.6,30.06,North,350,0.0,1.0,77,0.00,,,0.00,VWS V14.01,2013-02-10 12:50:00,
2013-02-10 05:55:00,30.8,24.8,30.06,North,350,0.0,2.0,78,0.00,,,0.00,VWS V14.01,2013-02-10 12:55:00,
2013-02-10 06:00:00,30.7,24.7,30.06,North,350,0.0,2.0,78,0.00,,,0.00,VWS V14.01,2013-02-10 13:00:00,
2013-02-10 06:05:00,30.6,24.3,30.06,North,350,1.0,1.0,77,0.00,,,0.00,VWS V14.01,2013-02-10 13:05:00,
2013-02-10 06:10:00,30.5,24.5,30.06,North,350,0.0,3.0,78,0.00,,,0.00,VWS V14.01,2013-02-10 13:10:00,
2013-02-10 06:15:00,30.5,24.5,30.06,North,350,0.0,0.0,78,0.00,,,0.00,VWS V14.01,2013-02-10 13:15:00,
2013-02-10 06:20:00,30.5,24.5,30.06,North,350,0.0,1.0,78,0.00,,,0.00,VWS V14.01,2013-02-10 13:20:00,
2013-02-10 06:25:00,30.4,24.4,30.06,North,350,0.0,1.0,78,0.00,,,0.00,VWS V14.01,2013-02-10 13:25:00,
2013-02-10 06:30:00,30.2,24.2,30.06,North,350,0.0,0.0,78,0.00,,,0.00,VWS V14.01,2013-02-10 13:30:00,
2013-02-10 06:35:00,30.1,24.4,30.06,North,350,0.0,2.0,79,0.00,,,0.00,VWS V14.01,2013-02-10 13:35:00,
2013-02-10 06:40:00,30.1,24.7,30.06,North,350,1.0,2.0,80,0.00,,,0.00,VWS V14.01,2013-02-10 13:40:00,
2013-02-10 06:45:00,30.0,24.6,30.06,North,350,0.0,1.0,80,0.00,,,0.00,VWS V14.01,2013-02-10 13:45:00,
2013-02-10 06:50:00,29.9,24.2,30.06,North,350,0.0,1.0,79,0.00,,,0.00,VWS V14.01,2013-02-10 13:50:00,
2013-02-10 06:55:00,29.9,24.2,30.06,North,350,0.0,1.0,79,0.00,,,0.00,VWS V14.01,2013-02-10 13:55:00,
2013-02-10 07:00:00,29.8,24.1,30.06,North,350,0.0,1.0,79,0.00,,,0.00,VWS V14.01,2013-02-10 14:00:00,
2013-02-10 07:05:00,29.6,24.2,30.06,North,350,1.0,1.0,80,0.00,,,0.00,VWS V14.01,2013-02-10 14:05:00,
2013-02-10 07:10:00,29.6,24.5,30.06,North,350,0.0,2.0,81,0.00,,,0.00,VWS V14.01,2013-02-10 14:10:00,
2013-02-10 07:15:00,29.6,24.5,30.06,North,350,0.0,0.0,81,0.00,,,0.00,VWS V14.01,2013-02-10 14:15:00,
2013-02-10 07:20:00,29.7,24.6,30.07,North,350,0.0,1.0,81,0.00,,,0.00,VWS V14.01,2013-02-10 14:20:00,
2013-02-10 07:25:00,29.9,24.8,30.07,North,350,0.0,2.0,81,0.00,,,0.00,VWS V14.01,2013-02-10 14:25:00,
2013-02-10 07:30:00,30.1,25.0,30.07,North,350,0.0,1.0,81,0.00,,,0.00,VWS V14.01,2013-02-10 14:30:00,
2013-02-10 07:35:00,30.5,25.4,30.07,North,350,0.0,1.0,81,0.00,,,0.00,VWS V14.01,2013-02-10 14:35:00,
2013-02-10 07:40:00,30.6,25.2,30.07,North,350,0.0,1.0,80,0.00,,,0.00,VWS V14.01,2013-02-10 14:40:00,
2013-02-10 07:45:00,30.7,25.3,30.07,North,350,0.0,0.0,80,0.00,,,0.00,VWS V14.01,2013-02-10 14:45:00,
2013-02-10 07:50:00,31.0,25.3,30.07,North,350,0.0,0.0,79,0.00,,,0.00,VWS V14.01,2013-02-10 14:50:00,
2013-02-10 07:55:00,31.5,25.4,30.07,North,350,0.0,0.0,78,0.00,,,0.00,VWS V14.01,2013-02-10 14:55:00,
2013-02-10 08:00:00,32.1,25.7,30.07,North,350,0.0,0.0,77,0.00,,,0.00,VWS V14.01,2013-02-10 15:00:00,
2013-02-10 08:05:00,32.8,26.1,30.08,North,350,1.0,3.0,76,0.00,,,0.00,VWS V14.01,2013-02-10 15:05:00,
2013-02-10 08:10:00,33.7,26.6,30.07,North,350,1.0,3.0,75,0.00,,,0.00,VWS V14.01,2013-02-10 15:10:00,
2013-02-10 08:15:00,34.6,26.9,30.08,North,350,0.0,3.0,73,0.00,,,0.00,VWS V14.01,2013-02-10 15:15:00,
2013-02-10 08:20:00,35.3,27.2,30.08,North,350,0.0,0.0,72,0.00,,,0.00,VWS V14.01,2013-02-10 15:20:00,
2013-02-10 08:25:00,36.1,28.0,30.08,North,350,0.0,0.0,72,0.00,,,0.00,VWS V14.01,2013-02-10 15:25:00,
2013-02-10 08:30:00,37.0,28.5,30.08,North,350,0.0,0.0,71,0.00,,,0.00,VWS V14.01,2013-02-10 15:30:00,
2013-02-10 08:35:00,38.0,28.4,30.08,North,350,0.0,0.0,68,0.00,,,0.00,VWS V14.01,2013-02-10 15:35:00,
2013-02-10 08:40:00,38.9,27.8,30.08,North,350,0.0,0.0,64,0.00,,,0.00,VWS V14.01,2013-02-10 15:40:00,
2013-02-10 08:45:00,39.7,27.0,30.08,North,350,0.0,1.0,60,0.00,,,0.00,VWS V14.01,2013-02-10 15:45:00,
2013-02-10 08:50:00,40.5,26.5,30.08,North,350,0.0,0.0,57,0.00,,,0.00,VWS V14.01,2013-02-10 15:50:00,
2013-02-10 08:55:00,41.3,27.2,30.08,North,350,0.0,1.0,57,0.00,,,0.00,VWS V14.01,2013-02-10 15:55:00,
2013-02-10 09:00:00,42.2,27.2,30.08,North,350,1.0,1.0,55,0.00,,,0.00,VWS V14.01,2013-02-10 16:00:00,
2013-02-10 09:05:00,42.7,28.1,30.08,North,350,0.0,2.0,56,0.00,,,0.00,VWS V14.01,2013-02-10 16:05:00,
2013-02-10 09:10:00,43.4,28.3,30.08,North,350,0.0,2.0,55,0.00,,,0.00,VWS V14.01,2013-02-10 16:10:00,
2013-02-10 09:15:00,43.9,27.9,30.08,North,350,0.0,3.0,53,0.00,,,0.00,VWS V14.01,2013-02-10 16:15:00,
2013-02-10 09:20:00,44.2,28.2,30.08,North,350,0.0,3.0,53,0.00,,,0.00,VWS V14.01,2013-02-10 16:20:00,
2013-02-10 09:25:00,44.6,28.5,30.08,North,350,1.0,2.0,53,0.00,,,0.00,VWS V14.01,2013-02-10 16:25:00,
2013-02-10 09:30:00,44.9,28.4,30.09,ESE,107,2.0,4.0,52,0.00,,,0.00,VWS V14.01,2013-02-10 16:30:00,
2013-02-10 09:35:00,45.3,28.2,30.09,ESE,107,0.0,4.0,51,0.00,,,0.00,VWS V14.01,2013-02-10 16:35:00,
2013-02-10 09:40:00,45.8,28.7,30.09,ESE,114,0.0,5.0,51,0.00,,,0.00,VWS V14.01,2013-02-10 16:40:00,
2013-02-10 09:45:00,46.2,28.1,30.08,ESE,113,0.0,4.0,49,0.00,,,0.00,VWS V14.01,2013-02-10 16:45:00,
2013-02-10 09:50:00,46.5,27.9,30.08,ESE,113,0.0,4.0,48,0.00,,,0.00,VWS V14.01,2013-02-10 16:50:00,
2013-02-10 09:55:00,46.5,27.9,30.08,ESE,113,0.0,4.0,48,0.00,,,0.00,VWS V14.01,2013-02-10 16:55:00,
2013-02-10 10:00:00,47.1,28.4,30.08,SE,126,2.0,4.0,48,0.00,,,0.00,VWS V14.01,2013-02-10 17:00:00,
2013-02-10 10:05:00,47.4,27.7,30.08,SE,126,1.0,5.0,46,0.00,,,0.00,VWS V14.01,2013-02-10 17:05:00,
2013-02-10 10:10:00,47.8,27.0,30.08,SE,126,1.0,2.0,44,0.00,,,0.00,VWS V14.01,2013-02-10 17:10:00,
2013-02-10 10:15:00,48.3,26.9,30.08,SE,126,0.0,4.0,43,0.00,,,0.00,VWS V14.01,2013-02-10 17:15:00,
2013-02-10 10:20:00,48.7,27.2,30.08,SE,126,0.0,1.0,43,0.00,,,0.00,VWS V14.01,2013-02-10 17:20:00,
2013-02-10 10:25:00,49.2,27.1,30.08,SSE,155,2.0,4.0,42,0.00,,,0.00,VWS V14.01,2013-02-10 17:25:00,
2013-02-10 10:30:00,49.6,26.3,30.08,South,173,1.0,6.0,40,0.00,,,0.00,VWS V14.01,2013-02-10 17:30:00,
2013-02-10 10:35:00,49.7,27.0,30.08,South,173,0.0,4.0,41,0.00,,,0.00,VWS V14.01,2013-02-10 17:35:00,
2013-02-10 10:40:00,50.1,26.1,30.08,WSW,242,0.0,4.0,39,0.00,,,0.00,VWS V14.01,2013-02-10 17:40:00,
2013-02-10 10:45:00,50.3,26.3,30.08,SW,215,0.0,7.0,39,0.00,,,0.00,VWS V14.01,2013-02-10 17:45:00,
2013-02-10 10:50:00,50.7,26.0,30.08,SW,218,1.0,6.0,38,0.00,,,0.00,VWS V14.01,2013-02-10 17:50:00,
2013-02-10 10:55:00,51.1,25.8,30.08,SW,217,2.0,4.0,37,0.00,,,0.00,VWS V14.01,2013-02-10 17:55:00,
2013-02-10 11:00:00,51.4,25.4,30.08,SW,235,0.0,5.0,36,0.00,,,0.00,VWS V14.01,2013-02-10 18:00:00,
2013-02-10 11:05:00,51.5,24.8,30.08,SW,233,1.0,5.0,35,0.00,,,0.00,VWS V14.01,2013-02-10 18:05:00,
2013-02-10 11:10:00,51.5,24.1,30.07,SW,233,0.0,2.0,34,0.00,,,0.00,VWS V14.01,2013-02-10 18:10:00,
2013-02-10 11:15:00,51.8,25.7,30.07,SW,233,1.0,3.0,36,0.00,,,0.00,VWS V14.01,2013-02-10 18:15:00,
2013-02-10 11:20:00,52.0,25.9,30.07,SW,224,4.0,8.0,36,0.00,,,0.00,VWS V14.01,2013-02-10 18:20:00,
2013-02-10 11:25:00,52.3,25.5,30.07,SW,224,0.0,6.0,35,0.00,,,0.00,VWS V14.01,2013-02-10 18:25:00,
2013-02-10 11:30:00,52.7,25.8,30.07,SSW,211,2.0,7.0,35,0.00,,,0.00,VWS V14.01,2013-02-10 18:30:00,
2013-02-10 11:35:00,53.0,26.1,30.07,SSW,211,0.0,5.0,35,0.00,,,0.00,VWS V14.01,2013-02-10 18:35:00,
2013-02-10 11:40:00,53.0,24.0,30.07,SSW,206,4.0,8.0,32,0.00,,,0.00,VWS V14.01,2013-02-10 18:40:00,
2013-02-10 11:45:00,52.8,23.0,30.07,SSW,198,1.0,6.0,31,0.00,,,0.00,VWS V14.01,2013-02-10 18:45:00,
2013-02-10 11:50:00,52.7,23.7,30.06,West,271,1.0,5.0,32,0.00,,,0.00,VWS V14.01,2013-02-10 18:50:00,
2013-02-10 11:55:00,52.4,22.7,30.06,WSW,241,4.0,7.0,31,0.00,,,0.00,VWS V14.01,2013-02-10 18:55:00,
2013-02-10 12:00:00,52.4,23.4,30.06,SW,220,0.0,8.0,32,0.00,,,0.00,VWS V14.01,2013-02-10 19:00:00,
2013-02-10 12:05:00,52.8,24.5,30.06,SW,220,0.0,6.0,33,0.00,,,0.00,VWS V14.01,2013-02-10 19:05:00,
2013-02-10 12:10:00,53.0,24.0,30.05,SW,215,2.0,7.0,32,0.00,,,0.00,VWS V14.01,2013-02-10 19:10:00,
2013-02-10 12:15:00,52.9,23.9,30.05,SW,215,1.0,3.0,32,0.00,,,0.00,VWS V14.01,2013-02-10 19:15:00,
2013-02-10 12:20:00,52.8,23.0,30.05,SW,216,0.0,4.0,31,0.00,,,0.00,VWS V14.01,2013-02-10 19:20:00,
2013-02-10 12:25:00,52.9,22.3,30.04,West,264,2.0,7.0,30,0.00,,,0.00,VWS V14.01,2013-02-10 19:25:00,
2013-02-10 12:30:00,53.2,24.9,30.04,WNW,288,2.0,7.0,33,0.00,,,0.00,VWS V14.01,2013-02-10 19:30:00,
2013-02-10 12:35:00,53.7,23.0,30.04,SSW,209,1.0,6.0,30,0.00,,,0.00,VWS V14.01,2013-02-10 19:35:00,
2013-02-10 12:40:00,53.8,22.3,30.03,West,262,3.0,6.0,29,0.00,,,0.00,VWS V14.01,2013-02-10 19:40:00,
2013-02-10 12:45:00,53.8,22.3,30.03,West,275,2.0,8.0,29,0.00,,,0.00,VWS V14.01,2013-02-10 19:45:00,
2013-02-10 12:50:00,53.9,21.6,30.02,SSW,194,0.0,5.0,28,0.00,,,0.00,VWS V14.01,2013-02-10 19:50:00,
2013-02-10 12:55:00,53.9,20.7,30.02,South,177,2.0,8.0,27,0.00,,,0.00,VWS V14.01,2013-02-10 19:55:00,
2013-02-10 13:00:00,54.0,20.8,30.02,South,191,0.0,6.0,27,0.00,,,0.00,VWS V14.01,2013-02-10 20:00:00,
2013-02-10 13:05:00,54.2,21.0,30.01,SW,218,2.0,8.0,27,0.00,,,0.00,VWS V14.01,2013-02-10 20:05:00,
2013-02-10 13:10:00,54.3,21.0,30.01,West,259,3.0,6.0,27,0.00,,,0.00,VWS V14.01,2013-02-10 20:10:00,
2013-02-10 13:15:00,54.8,19.7,30.01,SSW,211,4.0,10.0,25,0.00,,,0.00,VWS V14.01,2013-02-10 20:15:00,
2013-02-10 13:20:00,54.6,20.4,30.00,South,178,2.0,9.0,26,0.00,,,0.00,VWS V14.01,2013-02-10 20:20:00,
2013-02-10 13:25:00,54.7,20.5,30.00,SW,221,4.0,8.0,26,0.00,,,0.00,VWS V14.01,2013-02-10 20:25:00,
2013-02-10 13:30:00,54.8,17.7,29.99,SSW,209,9.0,13.0,23,0.00,,,0.00,VWS V14.01,2013-02-10 20:30:00,
2013-02-10 13:35:00,54.7,18.6,29.99,SW,220,6.0,9.0,24,0.00,,,0.00,VWS V14.01,2013-02-10 20:35:00,
2013-02-10 13:41:00,54.8,18.7,29.99,SSW,206,6.0,9.0,24,0.00,,,0.00,VWS V14.01,2013-02-10 20:41:00,
2013-02-10 13:46:00,54.8,19.7,29.99,SSW,208,3.0,12.0,25,0.00,,,0.00,VWS V14.01,2013-02-10 20:46:00,
2013-02-10 13:51:00,55.0,20.8,29.98,SSW,213,5.0,10.0,26,0.00,,,0.00,VWS V14.01,2013-02-10 20:51:00,
2013-02-10 13:56:00,54.8,20.6,29.98,SSW,193,4.0,9.0,26,0.00,,,0.00,VWS V14.01,2013-02-10 20:56:00,
2013-02-10 14:01:00,54.7,20.5,29.98,SSW,197,3.0,10.0,26,0.00,,,0.00,VWS V14.01,2013-02-10 21:01:00,
2013-02-10 14:06:00,55.0,20.8,29.98,SW,217,5.0,10.0,26,0.00,,,0.00,VWS V14.01,2013-02-10 21:06:00,
2013-02-10 14:11:00,55.0,19.8,29.98,South,191,7.0,12.0,25,0.00,,,0.00,VWS V14.01,2013-02-10 21:11:00,
2013-02-10 14:16:00,55.0,19.8,29.98,SW,219,9.0,10.0,25,0.00,,,0.00,VWS V14.01,2013-02-10 21:16:00,
2013-02-10 14:21:00,55.0,20.8,29.98,South,184,6.0,9.0,26,0.00,,,0.00,VWS V14.01,2013-02-10 21:21:00,
2013-02-10 14:26:00,54.9,20.7,29.98,SSW,212,8.0,12.0,26,0.00,,,0.00,VWS V14.01,2013-02-10 21:26:00,
2013-02-10 14:31:00,54.8,20.6,29.98,West,261,2.0,12.0,26,0.00,,,0.00,VWS V14.01,2013-02-10 21:31:00,
2013-02-10 14:36:00,54.9,22.4,29.99,SSW,193,4.0,10.0,28,0.00,,,0.00,VWS V14.01,2013-02-10 21:36:00,
2013-02-10 14:41:00,55.0,20.8,29.99,SW,234,4.0,9.0,26,0.00,,,0.00,VWS V14.01,2013-02-10 21:41:00,
2013-02-10 14:46:00,54.9,21.6,29.99,SW,233,4.0,10.0,27,0.00,,,0.00,VWS V14.01,2013-02-10 21:46:00,
2013-02-10 14:51:00,54.8,22.3,29.99,West,273,4.0,9.0,28,0.00,,,0.00,VWS V14.01,2013-02-10 21:51:00,
2013-02-10 14:56:00,54.8,23.2,29.99,SW,215,6.0,9.0,29,0.00,,,0.00,VWS V14.01,2013-02-10 21:56:00,
2013-02-10 15:01:00,55.1,23.4,29.99,SW,221,4.0,9.0,29,0.00,,,0.00,VWS V14.01,2013-02-10 22:01:00,
2013-02-10 15:06:00,55.1,23.4,29.99,SSW,211,6.0,8.0,29,0.00,,,0.00,VWS V14.01,2013-02-10 22:06:00,
2013-02-10 15:11:00,55.3,23.6,29.99,SW,221,3.0,8.0,29,0.00,,,0.00,VWS V14.01,2013-02-10 22:11:00,
2013-02-10 15:16:00,55.3,24.4,29.99,WSW,254,5.0,8.0,30,0.00,,,0.00,VWS V14.01,2013-02-10 22:16:00,
2013-02-10 15:21:00,55.4,24.5,29.98,SSW,210,4.0,10.0,30,0.00,,,0.00,VWS V14.01,2013-02-10 22:21:00,
2013-02-10 15:26:00,55.2,23.5,29.98,NW,306,1.0,8.0,29,0.00,,,0.00,VWS V14.01,2013-02-10 22:26:00,
2013-02-10 15:31:00,55.1,24.2,29.98,WNW,285,1.0,6.0,30,0.00,,,0.00,VWS V14.01,2013-02-10 22:31:00,
2013-02-10 15:36:00,55.1,23.4,29.98,SSW,213,4.0,7.0,29,0.00,,,0.00,VWS V14.01,2013-02-10 22:36:00,
2013-02-10 15:41:00,55.0,23.4,29.99,SW,219,1.0,9.0,29,0.00,,,0.00,VWS V14.01,2013-02-10 22:41:00,
2013-02-10 15:46:00,55.1,22.6,29.98,SW,217,3.0,5.0,28,0.00,,,0.00,VWS V14.01,2013-02-10 22:46:00,
2013-02-10 15:51:00,55.2,23.5,29.98,SW,231,4.0,7.0,29,0.00,,,0.00,VWS V14.01,2013-02-10 22:51:00,
2013-02-10 15:56:00,55.1,23.4,29.98,WSW,249,2.0,9.0,29,0.00,,,0.00,VWS V14.01,2013-02-10 22:56:00,
2013-02-10 16:01:00,55.0,22.5,29.98,West,272,2.0,6.0,28,0.00,,,0.00,VWS V14.01,2013-02-10 23:01:00,
2013-02-10 16:06:00,54.9,22.4,29.98,West,274,4.0,7.0,28,0.00,,,0.00,VWS V14.01,2013-02-10 23:06:00,
2013-02-10 16:11:00,54.9,22.4,29.98,NW,318,1.0,6.0,28,0.00,,,0.00,VWS V14.01,2013-02-10 23:11:00,
2013-02-10 16:16:00,54.9,22.4,29.98,SSW,198,1.0,7.0,28,0.00,,,0.00,VWS V14.01,2013-02-10 23:16:00,
2013-02-10 16:21:00,55.0,22.5,29.98,SW,221,6.0,10.0,28,0.00,,,0.00,VWS V14.01,2013-02-10 23:21:00,
2013-02-10 16:26:00,54.8,22.3,29.98,SW,220,0.0,8.0,28,0.00,,,0.00,VWS V14.01,2013-02-10 23:26:00,
2013-02-10 16:31:00,54.9,23.3,29.98,SW,223,3.0,8.0,29,0.00,,,0.00,VWS V14.01,2013-02-10 23:31:00,
2013-02-10 16:36:00,54.7,23.1,29.98,WSW,257,3.0,8.0,29,0.00,,,0.00,VWS V14.01,2013-02-10 23:36:00,
2013-02-10 16:41:00,54.6,22.2,29.98,West,265,3.0,8.0,28,0.00,,,0.00,VWS V14.01,2013-02-10 23:41:00,
2013-02-10 16:46:00,54.6,22.2,29.97,West,259,2.0,6.0,28,0.00,,,0.00,VWS V14.01,2013-02-10 23:46:00,
2013-02-10 16:51:00,54.6,22.2,29.97,West,275,5.0,6.0,28,0.00,,,0.00,VWS V14.01,2013-02-10 23:51:00,
2013-02-10 16:56:00,54.3,21.9,29.97,WSW,252,5.0,8.0,28,0.00,,,0.00,VWS V14.01,2013-02-10 23:56:00,
2013-02-10 17:01:00,54.0,21.6,29.98,West,259,0.0,7.0,28,0.00,,,0.00,VWS V14.01,2013-02-11 00:01:00,
2013-02-10 17:06:00,53.9,22.4,29.97,SW,223,4.0,7.0,29,0.00,,,0.00,VWS V14.01,2013-02-11 00:06:00,
2013-02-10 17:11:00,53.7,22.2,29.97,SW,223,1.0,6.0,29,0.00,,,0.00,VWS V14.01,2013-02-11 00:11:00,
2013-02-10 17:16:00,53.6,22.9,29.97,SW,218,1.0,6.0,30,0.00,,,0.00,VWS V14.01,2013-02-11 00:16:00,
2013-02-10 17:21:00,53.4,22.8,29.97,SW,220,3.0,6.0,30,0.00,,,0.00,VWS V14.01,2013-02-11 00:21:00,
2013-02-10 17:26:00,53.2,22.6,29.97,SW,215,1.0,5.0,30,0.00,,,0.00,VWS V14.01,2013-02-11 00:26:00,
2013-02-10 17:31:00,53.0,22.4,29.97,WSW,253,2.0,7.0,30,0.00,,,0.00,VWS V14.01,2013-02-11 00:31:00,
2013-02-10 17:36:00,52.6,21.3,29.97,WSW,238,2.0,4.0,29,0.00,,,0.00,VWS V14.01,2013-02-11 00:36:00,
2013-02-10 17:41:00,52.2,21.7,29.97,SW,232,6.0,6.0,30,0.00,,,0.00,VWS V14.01,2013-02-11 00:41:00,
2013-02-10 17:46:00,51.8,21.4,29.97,SW,229,0.0,1.0,30,0.00,,,0.00,VWS V14.01,2013-02-11 00:46:00,
2013-02-10 17:51:00,51.6,22.0,29.97,SW,229,1.0,1.0,31,0.00,,,0.00,VWS V14.01,2013-02-11 00:51:00,
2013-02-10 17:56:00,51.2,22.4,29.98,SW,229,0.0,0.0,32,0.00,,,0.00,VWS V14.01,2013-02-11 00:56:00,
2013-02-10 18:01:00,50.8,22.8,29.98,SW,229,0.0,3.0,33,0.00,,,0.00,VWS V14.01,2013-02-11 01:01:00,
2013-02-10 18:06:00,50.3,22.3,29.98,SW,229,0.0,0.0,33,0.00,,,0.00,VWS V14.01,2013-02-11 01:06:00,
2013-02-10 18:11:00,50.0,22.8,29.98,SW,229,0.0,0.0,34,0.00,,,0.00,VWS V14.01,2013-02-11 01:11:00,
2013-02-10 18:16:00,49.6,23.1,29.98,SW,229,0.0,1.0,35,0.00,,,0.00,VWS V14.01,2013-02-11 01:16:00,
2013-02-10 18:21:00,49.3,22.8,29.98,SW,229,0.0,0.0,35,0.00,,,0.00,VWS V14.01,2013-02-11 01:21:00,
2013-02-10 18:26:00,49.0,22.6,29.98,SW,229,0.0,1.0,35,0.00,,,0.00,VWS V14.01,2013-02-11 01:26:00,
2013-02-10 18:31:00,48.7,23.0,29.98,SW,229,1.0,1.0,36,0.00,,,0.00,VWS V14.01,2013-02-11 01:31:00,
2013-02-10 18:36:00,48.4,23.3,29.98,SW,229,0.0,1.0,37,0.00,,,0.00,VWS V14.01,2013-02-11 01:36:00,
2013-02-10 18:41:00,48.1,23.1,29.98,SW,229,0.0,0.0,37,0.00,,,0.00,VWS V14.01,2013-02-11 01:41:00,
2013-02-10 18:46:00,47.8,23.4,29.99,SW,229,0.0,0.0,38,0.00,,,0.00,VWS V14.01,2013-02-11 01:46:00,
2013-02-10 18:51:00,47.6,24.5,29.99,SW,229,0.0,0.0,40,0.00,,,0.00,VWS V14.01,2013-02-11 01:51:00,
2013-02-10 18:56:00,47.3,24.8,29.99,SW,229,0.0,0.0,41,0.00,,,0.00,VWS V14.01,2013-02-11 01:56:00,
2013-02-10 19:01:00,47.0,25.1,29.99,SW,229,0.0,0.0,42,0.00,,,0.00,VWS V14.01,2013-02-11 02:01:00,
2013-02-10 19:06:00,46.5,25.2,29.99,SW,229,0.0,0.0,43,0.00,,,0.00,VWS V14.01,2013-02-11 02:06:00,
2013-02-10 19:11:00,46.0,24.8,29.99,SW,229,0.0,1.0,43,0.00,,,0.00,VWS V14.01,2013-02-11 02:11:00,
2013-02-10 19:16:00,45.5,25.4,29.99,SW,229,2.0,2.0,45,0.00,,,0.00,VWS V14.01,2013-02-11 02:16:00,
2013-02-10 19:21:00,45.0,26.0,29.99,SW,229,0.0,0.0,47,0.00,,,0.00,VWS V14.01,2013-02-11 02:21:00,
2013-02-10 19:26:00,44.5,26.5,29.99,SW,229,0.0,0.0,49,0.00,,,0.00,VWS V14.01,2013-02-11 02:26:00,
2013-02-10 19:31:00,44.3,26.4,29.99,SW,229,0.0,0.0,49,0.00,,,0.00,VWS V14.01,2013-02-11 02:31:00,
2013-02-10 19:36:00,44.2,26.3,29.99,SW,229,0.0,0.0,49,0.00,,,0.00,VWS V14.01,2013-02-11 02:36:00,
2013-02-10 19:41:00,43.8,26.4,29.99,SW,229,0.0,1.0,50,0.00,,,0.00,VWS V14.01,2013-02-11 02:41:00,
2013-02-10 19:46:00,43.4,27.0,30.00,SW,229,0.0,1.0,52,0.00,,,0.00,VWS V14.01,2013-02-11 02:46:00,
2013-02-10 19:51:00,42.9,27.0,30.00,SW,229,0.0,1.0,53,0.00,,,0.00,VWS V14.01,2013-02-11 02:51:00,
2013-02-10 19:56:00,42.4,27.4,30.00,SW,229,0.0,0.0,55,0.00,,,0.00,VWS V14.01,2013-02-11 02:56:00,
2013-02-10 20:01:00,41.8,27.7,30.00,SW,229,2.0,2.0,57,0.00,,,0.00,VWS V14.01,2013-02-11 03:01:00,
2013-02-10 20:06:00,41.0,27.8,30.00,SW,229,0.0,2.0,59,0.00,,,0.00,VWS V14.01,2013-02-11 03:06:00,
2013-02-10 20:11:00,40.3,27.1,30.00,SW,229,0.0,0.0,59,0.00,,,0.00,VWS V14.01,2013-02-11 03:11:00,
2013-02-10 20:16:00,40.1,27.8,30.00,SW,229,0.0,0.0,61,0.00,,,0.00,VWS V14.01,2013-02-11 03:16:00,
2013-02-10 20:21:00,39.9,28.0,30.00,SW,229,0.0,0.0,62,0.00,,,0.00,VWS V14.01,2013-02-11 03:21:00,
2013-02-10 20:26:00,39.6,28.1,30.01,SW,229,2.0,2.0,63,0.00,,,0.00,VWS V14.01,2013-02-11 03:26:00,
2013-02-10 20:31:00,39.2,28.1,30.01,SW,229,2.0,2.0,64,0.00,,,0.00,VWS V14.01,2013-02-11 03:31:00,
2013-02-10 20:36:00,38.9,27.8,30.01,SW,229,1.0,1.0,64,0.00,,,0.00,VWS V14.01,2013-02-11 03:36:00,
2013-02-10 20:41:00,38.7,28.0,30.01,SW,229,3.0,3.0,65,0.00,,,0.00,VWS V14.01,2013-02-11 03:41:00,
2013-02-10 20:46:00,38.5,27.8,30.01,SW,229,0.0,0.0,65,0.00,,,0.00,VWS V14.01,2013-02-11 03:46:00,
2013-02-10 20:51:00,38.3,28.0,30.01,SW,229,1.0,3.0,66,0.00,,,0.00,VWS V14.01,2013-02-11 03:51:00,
2013-02-10 20:56:00,38.1,28.1,30.01,SW,229,2.0,3.0,67,0.00,,,0.00,VWS V14.01,2013-02-11 03:56:00,
2013-02-10 21:01:00,37.8,27.8,30.02,SW,229,2.0,2.0,67,0.00,,,0.00,VWS V14.01,2013-02-11 04:01:00,
2013-02-10 21:06:00,37.5,27.9,30.02,SW,229,0.0,1.0,68,0.00,,,0.00,VWS V14.01,2013-02-11 04:06:00,
2013-02-10 21:11:00,37.2,27.6,30.02,SW,229,2.0,2.0,68,0.00,,,0.00,VWS V14.01,2013-02-11 04:11:00,
2013-02-10 21:16:00,36.8,27.6,30.02,SW,229,3.0,3.0,69,0.00,,,0.00,VWS V14.01,2013-02-11 04:16:00,
2013-02-10 21:21:00,36.5,27.7,30.02,SW,229,1.0,2.0,70,0.00,,,0.00,VWS V14.01,2013-02-11 04:21:00,
2013-02-10 21:26:00,36.3,27.5,30.02,SW,229,1.0,2.0,70,0.00,,,0.00,VWS V14.01,2013-02-11 04:26:00,
2013-02-10 21:31:00,36.1,27.6,30.02,SW,229,0.0,2.0,71,0.00,,,0.00,VWS V14.01,2013-02-11 04:31:00,
2013-02-10 21:36:00,35.9,27.4,30.02,SW,229,2.0,2.0,71,0.00,,,0.00,VWS V14.01,2013-02-11 04:36:00,
2013-02-10 21:41:00,36.0,27.2,30.02,SW,229,0.0,0.0,70,0.00,,,0.00,VWS V14.01,2013-02-11 04:41:00,
2013-02-10 21:46:00,36.0,27.5,30.02,SW,229,2.0,2.0,71,0.00,,,0.00,VWS V14.01,2013-02-11 04:46:00,
2013-02-10 21:51:00,35.9,27.4,30.02,SW,229,3.0,3.0,71,0.00,,,0.00,VWS V14.01,2013-02-11 04:51:00,
2013-02-10 21:56:00,35.7,27.6,30.03,SW,229,3.0,3.0,72,0.00,,,0.00,VWS V14.01,2013-02-11 04:56:00,
2013-02-10 22:01:00,35.6,27.5,30.03,SW,229,3.0,3.0,72,0.00,,,0.00,VWS V14.01,2013-02-11 05:01:00,
2013-02-10 22:06:00,35.3,27.5,30.02,SW,229,2.0,3.0,73,0.00,,,0.00,VWS V14.01,2013-02-11 05:06:00,
2013-02-10 22:11:00,35.0,27.2,30.02,SW,229,2.0,3.0,73,0.00,,,0.00,VWS V14.01,2013-02-11 05:11:00,
2013-02-10 22:16:00,34.8,27.0,30.02,SW,229,2.0,2.0,73,0.00,,,0.00,VWS V14.01,2013-02-11 05:16:00,
2013-02-10 22:21:00,34.8,27.0,30.02,SW,229,2.0,3.0,73,0.00,,,0.00,VWS V14.01,2013-02-11 05:21:00,
2013-02-10 22:26:00,35.0,26.9,30.02,SW,229,1.0,2.0,72,0.00,,,0.00,VWS V14.01,2013-02-11 05:26:00,
2013-02-10 22:31:00,35.2,27.1,30.02,SW,229,2.0,3.0,72,0.00,,,0.00,VWS V14.01,2013-02-11 05:31:00,
2013-02-10 22:36:00,35.3,26.9,30.02,SW,229,2.0,3.0,71,0.00,,,0.00,VWS V14.01,2013-02-11 05:36:00,
2013-02-10 22:41:00,35.6,26.5,30.02,SW,229,0.0,1.0,69,0.00,,,0.00,VWS V14.01,2013-02-11 05:41:00,
2013-02-10 22:46:00,35.7,26.5,30.02,SW,229,1.0,1.0,69,0.00,,,0.00,VWS V14.01,2013-02-11 05:46:00,
2013-02-10 22:51:00,35.7,26.5,30.02,SW,229,1.0,1.0,69,0.00,,,0.00,VWS V14.01,2013-02-11 05:51:00,
2013-02-10 22:56:00,35.6,26.8,30.02,SW,229,2.0,2.0,70,0.00,,,0.00,VWS V14.01,2013-02-11 05:56:00,
2013-02-10 23:01:00,35.3,26.9,30.02,SW,229,2.0,3.0,71,0.00,,,0.00,VWS V14.01,2013-02-11 06:01:00,
2013-02-10 23:06:00,35.0,26.9,30.02,SW,229,3.0,3.0,72,0.00,,,0.00,VWS V14.01,2013-02-11 06:06:00,
2013-02-10 23:11:00,34.7,26.6,30.02,SW,229,2.0,3.0,72,0.00,,,0.00,VWS V14.01,2013-02-11 06:11:00,
2013-02-10 23:16:00,34.5,26.4,30.02,SW,229,1.0,1.0,72,0.00,,,0.00,VWS V14.01,2013-02-11 06:16:00,
2013-02-10 23:21:00,34.3,26.2,30.02,SW,229,3.0,3.0,72,0.00,,,0.00,VWS V14.01,2013-02-11 06:21:00,
2013-02-10 23:26:00,34.0,26.3,30.02,SW,229,0.0,2.0,73,0.00,,,0.00,VWS V14.01,2013-02-11 06:26:00,
2013-02-10 23:31:00,33.7,26.3,30.02,SW,229,1.0,2.0,74,0.00,,,0.00,VWS V14.01,2013-02-11 06:31:00,
2013-02-10 23:36:00,33.6,26.2,30.02,SW,229,3.0,3.0,74,0.00,,,0.00,VWS V14.01,2013-02-11 06:36:00,
2013-02-10 23:41:00,33.5,26.1,30.01,SW,229,3.0,4.0,74,0.00,,,0.00,VWS V14.01,2013-02-11 06:41:00,
2013-02-10 23:46:00,33.6,26.2,30.02,SW,229,3.0,4.0,74,0.00,,,0.00,VWS V14.01,2013-02-11 06:46:00,
2013-02-10 23:51:00,33.9,26.2,30.01,SW,229,1.0,4.0,73,0.00,,,0.00,VWS V14.01,2013-02-11 06:51:00,
2013-02-10 23:57:00,34.1,26.0,30.01,SW,229,2.0,4.0,72,0.00,,,0.00,VWS V14.01,2013-02-11 06:57:00,